Weather History for Prestonsburg, KY

Change the Weather History Date:

Thursday, May 16, 2013

  Actual Average (KJKL) Record (KJKL)
Temperature  
Mean Temperature 69 °F 65 °F  
Max Temperature 77 °F 75 °F 85 °F (1986)
Min Temperature 61 °F 55 °F 32 °F (1997)
Degree Days  
Heating Degree Days 0 3  
Month to date heating degree days 66  
Since 1 July heating degree days 4187  
Cooling Degree Days 4 3  
Month to date cooling degree days 37  
Year to date cooling degree days 83  
Growing Degree Days 19 (Base 50)    
Moisture  
Dew Point 57 °F    
Average Humidity 66    
Maximum Humidity 99    
Minimum Humidity 46    
Precipitation  
Precipitation 0.00 in 0.17 in 0.79 in (2009)
Month to date precipitation 2.61  
Year to date precipitation 17.92  
Snow  
Snow 0.00 in 0.00 in - ()
Month to date snowfall 0.0  
Since 1 July snowfall 23.5  
Snow Depth -    
Sea Level Pressure  
Sea Level Pressure 30.00 in    
Wind  
Wind Speed 5 mph (WSW)    
Max Wind Speed 12 mph    
Max Gust Speed 28 mph    
Visibility 10 miles    
Events Rain    
T = Trace of Precipitation, MM = Missing Value Source: NWS Daily Summary

Daily Weather History Graph

Daily Weather History Graph

Search for Another Location

Airport:

Trip Planner

Search our weather history database for the weather conditions in past years. The results will help you decide how hot, cold, wet, or windy it might be!

Date:

Astronomy

May. 16, 2013 Rise Set
Actual Time 6:19 AM EDT 8:34 PM EDT
Civil Twilight 5:50 AM EDT 9:04 PM EDT
Nautical Twilight 5:14 AM EDT 9:40 PM EDT
Astronomical Twilight 4:34 AM EDT 10:20 PM EDT
Moon 11:49 AM EDT (5/16) 12:56 AM EDT (5/16)
Length of Visible Light 15h 13m
Length of Day
14h 14m
Waxing Crescent, 35% of the Moon is Illuminated
May 16
Waxing Crescent
May 18
First Quarter
May 25
Full
May 31
Last Quarter
Jun 8
New

Hourly Weather History & Observations

Time (EDT) Temp. Dew Point Humidity Pressure Visibility Wind Dir Wind Speed Gust Speed Precip Events Conditions
12:15 AM 71.6 °F 50.4 °F 47% 29.97 in 10.0 mi WSW 4.6 mph - N/A   Clear
12:35 AM 71.6 °F 50.2 °F 47% 29.97 in 10.0 mi WSW 5.8 mph - N/A   Clear
12:55 AM 71.6 °F 50.0 °F 46% 29.97 in 10.0 mi WSW 5.8 mph - N/A   Clear
1:15 AM 71.1 °F 50.2 °F 48% 29.97 in 10.0 mi WSW 6.9 mph - N/A   Clear
1:35 AM 70.7 °F 50.4 °F 48% 29.97 in 10.0 mi WSW 5.8 mph - N/A   Clear
1:55 AM 70.0 °F 50.2 °F 49% 29.97 in 10.0 mi WSW 5.8 mph - N/A   Clear
2:15 AM 69.4 °F 50.0 °F 50% 29.97 in 10.0 mi WSW 4.6 mph - N/A   Clear
2:35 AM 68.9 °F 49.6 °F 50% 29.96 in 10.0 mi Calm Calm - N/A   Clear
2:55 AM 68.7 °F 49.5 °F 50% 29.97 in 10.0 mi SW 4.6 mph - N/A   Clear
3:15 AM 68.5 °F 49.5 °F 50% 29.97 in 10.0 mi WSW 4.6 mph - N/A   Clear
3:35 AM 68.2 °F 49.3 °F 51% 29.97 in 10.0 mi WSW 4.6 mph - N/A   Clear
3:55 AM 67.3 °F 49.3 °F 52% 29.97 in 10.0 mi SW 3.5 mph - N/A   Clear
4:15 AM 67.5 °F 49.6 °F 53% 29.97 in 10.0 mi SW 3.5 mph - N/A   Clear
4:35 AM 67.5 °F 50.0 °F 53% 29.97 in 10.0 mi SW 5.8 mph - N/A   Clear
4:55 AM 66.6 °F 50.2 °F 56% 29.97 in 10.0 mi SW 3.5 mph - N/A   Clear
5:15 AM 66.6 °F 50.2 °F 56% 29.97 in 10.0 mi SW 5.8 mph - N/A   Clear
5:35 AM 66.2 °F 50.5 °F 57% 29.97 in 10.0 mi SW 4.6 mph - N/A   Clear
5:55 AM 66.6 °F 50.7 °F 57% 29.97 in 10.0 mi SW 5.8 mph - N/A   Clear
6:15 AM 66.4 °F 51.1 °F 58% 29.97 in 10.0 mi SW 5.8 mph - N/A   Clear
6:35 AM 66.2 °F 51.6 °F 59% 29.98 in 10.0 mi WSW 5.8 mph - N/A   Clear
6:55 AM 66.6 °F 51.8 °F 59% 29.98 in 10.0 mi SW 5.8 mph - N/A   Clear
7:15 AM 66.4 °F 52.0 °F 60% 29.99 in 10.0 mi SW 5.8 mph - N/A   Clear
7:35 AM 66.7 °F 52.7 °F 61% 30.00 in 10.0 mi SW 5.8 mph - N/A   Clear
7:55 AM 67.6 °F 53.4 °F 60% 30.00 in 10.0 mi SW 5.8 mph - N/A   Clear
8:15 AM 67.8 °F 54.0 °F 61% 30.01 in 10.0 mi SW 4.6 mph - N/A   Clear
8:35 AM 69.1 °F 54.9 °F 60% 30.01 in 10.0 mi WSW 5.8 mph - N/A   Clear
8:55 AM 69.8 °F 55.4 °F 60% 30.00 in 10.0 mi SW 6.9 mph 16.1 mph N/A   Clear
9:15 AM 69.8 °F 55.4 °F 60% 30.01 in 10.0 mi SW 6.9 mph - N/A   Clear
9:35 AM 71.4 °F 56.8 °F 60% 30.00 in 10.0 mi WSW 5.8 mph - N/A   Clear
9:55 AM 71.6 °F 57.2 °F 60% 30.00 in 10.0 mi SW 4.6 mph - N/A   Clear
10:15 AM 72.1 °F 57.0 °F 59% 30.00 in 10.0 mi WSW 11.5 mph - N/A   Clear
10:35 AM 72.1 °F 57.4 °F 60% 30.01 in 10.0 mi WSW 11.5 mph - N/A   Clear
10:55 AM 72.1 °F 57.7 °F 60% 30.02 in 10.0 mi WSW 8.1 mph - N/A   Clear
11:15 AM 72.5 °F 57.4 °F 59% 30.02 in 10.0 mi WSW 9.2 mph - N/A   Scattered Clouds
11:35 AM 73.2 °F 57.9 °F 59% 30.02 in 10.0 mi WSW 10.4 mph 16.1 mph N/A   Overcast
11:55 AM 73.6 °F 58.1 °F 58% 30.02 in 10.0 mi WSW 9.2 mph - N/A   Mostly Cloudy
12:15 PM 74.3 °F 58.3 °F 57% 30.01 in 10.0 mi WSW 11.5 mph 16.1 mph N/A   Scattered Clouds
12:35 PM 74.5 °F 59.0 °F 58% 30.01 in 10.0 mi WSW 5.8 mph - N/A   Scattered Clouds
12:55 PM 74.3 °F 59.4 °F 60% 30.00 in 10.0 mi West 6.9 mph - N/A   Mostly Cloudy
1:15 PM 74.3 °F 60.3 °F 61% 30.00 in 10.0 mi West 5.8 mph - N/A   Scattered Clouds
1:35 PM 75.9 °F 60.3 °F 58% 29.99 in 10.0 mi SW 8.1 mph - N/A   Scattered Clouds
1:55 PM 77.0 °F 60.3 °F 56% 29.99 in 10.0 mi WSW 8.1 mph 16.1 mph N/A   Clear
2:15 PM 77.0 °F 60.8 °F 57% 29.99 in 10.0 mi WSW 4.6 mph - N/A   Mostly Cloudy
2:35 PM 77.7 °F 60.3 °F 55% 29.98 in 10.0 mi SW 9.2 mph - N/A   Overcast
3:15 PM 77.4 °F 61.0 °F 57% 29.98 in 10.0 mi WSW 8.1 mph - N/A   Mostly Cloudy
3:35 PM 75.6 °F 60.4 °F 59% 29.99 in 10.0 mi West 5.8 mph - N/A   Overcast
3:55 PM 75.2 °F 60.4 °F 60% 30.00 in 10.0 mi WNW 5.8 mph - N/A   Overcast
4:15 PM 75.9 °F 62.6 °F 63% 30.00 in 10.0 mi WNW 4.6 mph - N/A   Mostly Cloudy
4:35 PM 75.7 °F 62.2 °F 63% 29.99 in 10.0 mi West 8.1 mph - N/A   Scattered Clouds
4:55 PM 74.5 °F 62.1 °F 65% 29.99 in 10.0 mi West 6.9 mph - N/A   Mostly Cloudy
5:15 PM 64.6 °F 61.7 °F 90% 30.02 in 2.5 mi NW 6.9 mph 27.6 mph N/A Rain Light Rain
5:35 PM 64.4 °F 62.6 °F 94% 30.03 in 10.0 mi NNW 5.8 mph - N/A Rain Light Rain
6:15 PM 65.1 °F 63.5 °F 94% 30.03 in 7.0 mi Calm Calm - N/A   Overcast
6:35 PM 65.3 °F 63.5 °F 94% 30.03 in 10.0 mi Calm Calm - N/A   Drizzle
7:15 PM 65.7 °F 63.9 °F 94% 30.02 in 10.0 mi SW 3.5 mph - N/A   Scattered Clouds
8:15 PM 65.5 °F 63.1 °F 92% 30.01 in 10.0 mi South 6.9 mph - N/A   Scattered Clouds
8:35 PM 65.3 °F 63.0 °F 92% 30.01 in 10.0 mi South 6.9 mph - N/A   Scattered Clouds
8:55 PM 65.1 °F 62.6 °F 92% 30.01 in 10.0 mi SSE 5.8 mph - N/A   Clear
9:15 PM 64.4 °F 62.6 °F 94% 30.02 in 10.0 mi Calm Calm - N/A   Clear
9:35 PM 63.0 °F 61.9 °F 96% 30.03 in 5.0 mi Calm Calm - N/A   Scattered Clouds
9:55 PM 64.4 °F 62.6 °F 94% 30.03 in 10.0 mi Calm Calm - N/A   Mostly Cloudy
10:15 PM 63.7 °F 61.7 °F 93% 30.03 in 10.0 mi South 4.6 mph - N/A   Scattered Clouds
10:35 PM 64.4 °F 61.5 °F 90% 30.04 in 10.0 mi SSW 5.8 mph - N/A   Clear
10:55 PM 63.5 °F 61.7 °F 94% 30.03 in 10.0 mi SSW 4.6 mph - N/A   Clear
11:15 PM 62.6 °F 61.3 °F 96% 30.04 in 7.0 mi Calm Calm - N/A   Clear
11:35 PM 61.7 °F 60.8 °F 97% 30.04 in 2.5 mi Calm Calm - N/A   Mostly Cloudy
11:55 PM 62.1 °F 61.7 °F 99% 30.04 in 10.0 mi Calm Calm - N/A   Overcast